Time,TemperatureF,DewpointF,PressureIn,WindDirection,WindDirectionDegrees,WindSpeedMPH,WindSpeedGustMPH,Humidity,HourlyPrecipIn,Conditions,Clouds,dailyrainin,SoftwareType,DateUTC
2013-08-21 00:10:00,62.4,50.0,29.53,ENE,63,0.0,3.0,64,0.00,,,0.08,weatherlink.com 1.10,2013-08-21 07:10:00,
2013-08-21 00:25:00,62.4,49.0,29.52,ENE,63,1.0,2.0,63,0.00,,,0.08,weatherlink.com 1.10,2013-08-21 07:25:00,
2013-08-21 00:40:00,61.3,51.0,29.52,NE,53,2.0,3.0,68,0.00,,,0.08,weatherlink.com 1.10,2013-08-21 07:40:00,
2013-08-21 00:55:00,61.4,50.0,29.52,NNW,330,4.0,5.0,67,0.00,,,0.08,weatherlink.com 1.10,2013-08-21 07:55:00,
2013-08-21 01:10:00,60.9,51.0,29.52,NE,39,0.0,4.0,69,0.00,,,0.08,weatherlink.com 1.10,2013-08-21 08:10:00,
2013-08-21 01:25:00,60.2,51.0,29.52,North,4,4.0,5.0,71,0.00,,,0.08,weatherlink.com 1.10,2013-08-21 08:25:00,
2013-08-21 01:40:00,60.0,51.0,29.51,NNE,25,3.0,5.0,72,0.00,,,0.08,weatherlink.com 1.10,2013-08-21 08:40:00,
2013-08-21 01:55:00,60.8,50.0,29.50,NE,36,4.0,4.0,67,0.00,,,0.08,weatherlink.com 1.10,2013-08-21 08:55:00,
2013-08-21 02:10:00,61.6,48.0,29.50,NE,53,2.0,3.0,62,0.00,,,0.08,weatherlink.com 1.10,2013-08-21 09:10:00,
2013-08-21 02:25:00,62.8,47.0,29.50,ENE,63,1.0,3.0,56,0.00,,,0.08,weatherlink.com 1.10,2013-08-21 09:25:00,
2013-08-21 02:40:00,63.0,46.0,29.50,ENE,63,0.0,1.0,55,0.00,,,0.08,weatherlink.com 1.10,2013-08-21 09:40:00,
2013-08-21 02:55:00,63.7,47.0,29.50,NE,40,2.0,3.0,54,0.00,,,0.08,weatherlink.com 1.10,2013-08-21 09:55:00,
2013-08-21 03:11:00,63.4,46.0,29.50,NE,56,0.0,1.0,53,0.00,,,0.08,weatherlink.com 1.10,2013-08-21 10:11:00,
2013-08-21 03:26:00,63.4,45.0,29.50,SE,139,0.0,0.0,52,0.00,,,0.08,weatherlink.com 1.10,2013-08-21 10:26:00,
2013-08-21 03:41:00,63.8,46.0,29.51,East,89,0.0,2.0,52,0.00,,,0.08,weatherlink.com 1.10,2013-08-21 10:41:00,
2013-08-21 03:56:00,63.5,46.0,29.51,SE,138,1.0,1.0,53,0.00,,,0.08,weatherlink.com 1.10,2013-08-21 10:56:00,
2013-08-21 04:11:00,63.7,46.0,29.51,West,277,0.0,1.0,52,0.00,,,0.08,weatherlink.com 1.10,2013-08-21 11:11:00,
2013-08-21 04:26:00,63.6,46.0,29.51,West,280,0.0,1.0,53,0.00,,,0.08,weatherlink.com 1.10,2013-08-21 11:26:00,
2013-08-21 04:41:00,63.4,46.0,29.51,NNE,33,0.0,1.0,54,0.00,,,0.08,weatherlink.com 1.10,2013-08-21 11:41:00,
2013-08-21 04:56:00,63.4,46.0,29.52,NE,38,0.0,1.0,54,0.00,,,0.08,weatherlink.com 1.10,2013-08-21 11:56:00,
2013-08-21 05:11:00,63.2,46.0,29.52,ENE,64,2.0,3.0,53,0.00,,,0.08,weatherlink.com 1.10,2013-08-21 12:11:00,
2013-08-21 05:26:00,63.7,46.0,29.52,East,79,0.0,3.0,52,0.00,,,0.08,weatherlink.com 1.10,2013-08-21 12:26:00,
2013-08-21 05:41:00,63.7,46.0,29.52,East,94,1.0,4.0,52,0.00,,,0.08,weatherlink.com 1.10,2013-08-21 12:41:00,
2013-08-21 05:56:00,63.3,46.0,29.53,NNE,15,1.0,3.0,54,0.00,,,0.08,weatherlink.com 1.10,2013-08-21 12:56:00,
2013-08-21 06:11:00,63.1,46.0,29.53,WNW,295,1.0,4.0,54,0.00,,,0.08,weatherlink.com 1.10,2013-08-21 13:11:00,
2013-08-21 06:26:00,63.1,46.0,29.53,West,281,1.0,4.0,54,0.00,,,0.08,weatherlink.com 1.10,2013-08-21 13:26:00,
2013-08-21 06:41:00,62.9,46.0,29.54,NW,304,0.0,1.0,55,0.00,,,0.08,weatherlink.com 1.10,2013-08-21 13:41:00,
2013-08-21 06:56:00,63.1,47.0,29.54,ENE,60,2.0,4.0,56,0.00,,,0.08,weatherlink.com 1.10,2013-08-21 13:56:00,
2013-08-21 07:11:00,63.0,48.0,29.54,East,79,0.0,2.0,58,0.00,,,0.08,weatherlink.com 1.10,2013-08-21 14:11:00,
2013-08-21 07:26:00,63.3,48.0,29.55,North,9,2.0,4.0,57,0.00,,,0.08,weatherlink.com 1.10,2013-08-21 14:26:00,
2013-08-21 07:41:00,63.4,49.0,29.55,NNE,33,1.0,2.0,59,0.00,,,0.08,weatherlink.com 1.10,2013-08-21 14:41:00,
2013-08-21 07:56:00,64.0,49.0,29.55,East,92,1.0,5.0,58,0.00,,,0.08,weatherlink.com 1.10,2013-08-21 14:56:00,
2013-08-21 08:11:00,64.2,49.0,29.55,NNE,33,0.0,3.0,58,0.00,,,0.08,weatherlink.com 1.10,2013-08-21 15:11:00,
2013-08-21 08:26:00,64.8,50.0,29.55,NNW,330,2.0,2.0,59,0.00,,,0.08,weatherlink.com 1.10,2013-08-21 15:26:00,
2013-08-21 08:41:00,64.9,50.0,29.56,North,5,2.0,5.0,58,0.00,,,0.08,weatherlink.com 1.10,2013-08-21 15:41:00,
2013-08-21 08:56:00,65.1,50.0,29.56,NW,305,0.0,8.0,58,0.00,,,0.08,weatherlink.com 1.10,2013-08-21 15:56:00,
2013-08-21 09:11:00,65.4,51.0,29.56,NW,311,1.0,5.0,59,0.00,,,0.08,weatherlink.com 1.10,2013-08-21 16:11:00,
2013-08-21 09:26:00,65.7,51.0,29.56,WNW,294,2.0,5.0,59,0.00,,,0.08,weatherlink.com 1.10,2013-08-21 16:26:00,
2013-08-21 09:41:00,65.0,51.0,29.56,West,275,5.0,9.0,60,0.00,,,0.08,weatherlink.com 1.10,2013-08-21 16:41:00,
2013-08-21 09:56:00,65.4,51.0,29.56,SW,229,3.0,8.0,60,0.00,,,0.08,weatherlink.com 1.10,2013-08-21 16:56:00,
2013-08-21 10:11:00,64.6,51.0,29.56,NNW,330,4.0,10.0,62,0.00,,,0.08,weatherlink.com 1.10,2013-08-21 17:11:00,
2013-08-21 10:26:00,64.2,51.0,29.57,SW,225,2.0,8.0,62,0.00,,,0.08,weatherlink.com 1.10,2013-08-21 17:26:00,
2013-08-21 10:41:00,64.6,52.0,29.57,WNW,288,3.0,7.0,63,0.00,,,0.08,weatherlink.com 1.10,2013-08-21 17:41:00,
2013-08-21 10:56:00,64.5,51.0,29.57,NNW,339,0.0,7.0,61,0.00,,,0.08,weatherlink.com 1.10,2013-08-21 17:56:00,
2013-08-21 11:11:00,64.5,51.0,29.56,West,278,3.0,9.0,62,0.00,,,0.08,weatherlink.com 1.10,2013-08-21 18:11:00,
2013-08-21 11:26:00,64.4,52.0,29.56,NW,307,2.0,6.0,64,0.00,,,0.08,weatherlink.com 1.10,2013-08-21 18:26:00,
2013-08-21 11:41:00,64.6,51.0,29.56,West,269,2.0,8.0,62,0.00,,,0.08,weatherlink.com 1.10,2013-08-21 18:41:00,
2013-08-21 11:56:00,65.0,52.0,29.56,SE,138,2.0,11.0,63,0.00,,,0.08,weatherlink.com 1.10,2013-08-21 18:56:00,
2013-08-21 12:11:00,65.6,53.0,29.55,WNW,295,8.0,10.0,63,0.00,,,0.08,weatherlink.com 1.10,2013-08-21 19:11:00,
2013-08-21 12:26:00,67.1,54.0,29.55,SW,232,2.0,10.0,63,0.00,,,0.08,weatherlink.com 1.10,2013-08-21 19:26:00,
2013-08-21 12:41:00,67.5,53.0,29.55,NW,304,5.0,11.0,60,0.00,,,0.08,weatherlink.com 1.10,2013-08-21 19:41:00,
2013-08-21 12:56:00,68.4,54.0,29.55,West,269,5.0,8.0,60,0.00,,,0.08,weatherlink.com 1.10,2013-08-21 19:56:00,
2013-08-21 13:11:00,68.6,55.0,29.54,NW,308,2.0,11.0,62,0.00,,,0.08,weatherlink.com 1.10,2013-08-21 20:11:00,
2013-08-21 13:26:00,68.3,54.0,29.54,WNW,290,8.0,11.0,60,0.00,,,0.08,weatherlink.com 1.10,2013-08-21 20:26:00,
2013-08-21 13:41:00,69.7,53.0,29.54,NW,309,3.0,10.0,56,0.00,,,0.08,weatherlink.com 1.10,2013-08-21 20:41:00,
2013-08-21 13:56:00,69.8,53.0,29.53,NNW,341,5.0,13.0,55,0.00,,,0.08,weatherlink.com 1.10,2013-08-21 20:56:00,
2013-08-21 14:11:00,69.9,53.0,29.53,South,183,2.0,11.0,55,0.00,,,0.08,weatherlink.com 1.10,2013-08-21 21:11:00,
2013-08-21 14:26:00,69.4,53.0,29.53,WSW,253,3.0,10.0,57,0.00,,,0.08,weatherlink.com 1.10,2013-08-21 21:26:00,
2013-08-21 14:41:00,66.5,52.0,29.52,WSW,248,6.0,8.0,59,0.00,,,0.08,weatherlink.com 1.10,2013-08-21 21:41:00,
2013-08-21 14:56:00,65.8,53.0,29.51,West,270,5.0,8.0,63,0.00,,,0.08,weatherlink.com 1.10,2013-08-21 21:56:00,
2013-08-21 15:11:00,66.8,52.0,29.50,WNW,284,3.0,9.0,59,0.00,,,0.08,weatherlink.com 1.10,2013-08-21 22:11:00,
2013-08-21 15:26:00,68.3,54.0,29.50,South,188,4.0,13.0,60,0.00,,,0.00,weatherlink.com 1.10,2013-08-21 22:26:00,
2013-08-21 15:41:00,67.3,53.0,29.50,NW,308,3.0,9.0,60,0.00,,,0.00,weatherlink.com 1.10,2013-08-21 22:41:00,
2013-08-21 15:56:00,68.0,52.0,29.49,WSW,257,4.0,8.0,57,0.00,,,0.00,weatherlink.com 1.10,2013-08-21 22:56:00,
2013-08-21 16:11:00,67.3,52.0,29.49,WNW,285,3.0,7.0,58,0.00,,,0.00,weatherlink.com 1.10,2013-08-21 23:11:00,
2013-08-21 16:26:00,66.8,53.0,29.49,West,260,0.0,7.0,61,0.00,,,0.00,weatherlink.com 1.10,2013-08-21 23:26:00,
2013-08-21 16:41:00,66.0,52.0,29.48,WSW,245,1.0,4.0,62,0.00,,,0.00,weatherlink.com 1.10,2013-08-21 23:41:00,
2013-08-21 16:56:00,65.3,53.0,29.48,WSW,239,4.0,8.0,65,0.00,,,0.00,weatherlink.com 1.10,2013-08-21 23:56:00,
2013-08-21 17:12:00,63.5,53.0,29.48,WSW,245,3.0,10.0,68,0.00,,,0.00,weatherlink.com 1.10,2013-08-22 00:12:00,
2013-08-21 17:27:00,63.4,53.0,29.48,WSW,242,4.0,8.0,68,0.00,,,0.00,weatherlink.com 1.10,2013-08-22 00:27:00,
2013-08-21 17:42:00,63.2,52.0,29.48,West,259,8.0,10.0,67,0.00,,,0.00,weatherlink.com 1.10,2013-08-22 00:42:00,
2013-08-21 17:57:00,63.2,53.0,29.49,SW,221,4.0,7.0,69,0.00,,,0.00,weatherlink.com 1.10,2013-08-22 00:57:00,
2013-08-21 18:12:00,63.3,52.0,29.49,West,259,3.0,5.0,66,0.00,,,0.00,weatherlink.com 1.10,2013-08-22 01:12:00,
2013-08-21 18:27:00,63.4,52.0,29.49,West,276,4.0,5.0,66,0.00,,,0.00,weatherlink.com 1.10,2013-08-22 01:27:00,
2013-08-21 18:42:00,63.5,52.0,29.50,SW,223,1.0,4.0,66,0.00,,,0.00,weatherlink.com 1.10,2013-08-22 01:42:00,
2013-08-21 18:57:00,62.6,52.0,29.50,South,172,0.0,2.0,69,0.01,,,0.01,weatherlink.com 1.10,2013-08-22 01:57:00,
2013-08-21 19:12:00,62.1,52.0,29.50,SSE,150,2.0,3.0,70,0.01,,,0.01,weatherlink.com 1.10,2013-08-22 02:12:00,
2013-08-21 19:27:00,63.3,52.0,29.50,ENE,77,2.0,4.0,66,0.01,,,0.01,weatherlink.com 1.10,2013-08-22 02:27:00,
2013-08-21 19:42:00,63.1,52.0,29.51,East,99,0.0,1.0,67,0.01,,,0.01,weatherlink.com 1.10,2013-08-22 02:42:00,
2013-08-21 19:57:00,63.2,52.0,29.51,SE,139,1.0,2.0,66,0.00,,,0.01,weatherlink.com 1.10,2013-08-22 02:57:00,
2013-08-21 20:12:00,63.5,51.0,29.51,SE,140,0.0,3.0,65,0.00,,,0.01,weatherlink.com 1.10,2013-08-22 03:12:00,
2013-08-21 20:27:00,63.7,52.0,29.52,SSE,151,3.0,6.0,65,0.00,,,0.01,weatherlink.com 1.10,2013-08-22 03:27:00,
2013-08-21 20:42:00,63.4,50.0,29.53,East,79,1.0,2.0,63,0.00,,,0.01,weatherlink.com 1.10,2013-08-22 03:42:00,
2013-08-21 20:57:00,63.3,50.0,29.54,ESE,104,1.0,3.0,63,0.00,,,0.01,weatherlink.com 1.10,2013-08-22 03:57:00,
2013-08-21 21:12:00,63.7,50.0,29.54,SSE,148,2.0,3.0,62,0.00,,,0.01,weatherlink.com 1.10,2013-08-22 04:12:00,
2013-08-21 21:27:00,64.0,51.0,29.54,SE,129,1.0,2.0,63,0.00,,,0.01,weatherlink.com 1.10,2013-08-22 04:27:00,
2013-08-21 21:42:00,64.5,51.0,29.55,SE,143,2.0,5.0,62,0.00,,,0.01,weatherlink.com 1.10,2013-08-22 04:42:00,
2013-08-21 21:57:00,64.5,51.0,29.55,SE,140,2.0,3.0,62,0.00,,,0.01,weatherlink.com 1.10,2013-08-22 04:57:00,
2013-08-21 22:12:00,64.5,51.0,29.56,SE,136,2.0,3.0,62,0.00,,,0.01,weatherlink.com 1.10,2013-08-22 05:12:00,
2013-08-21 22:27:00,64.3,51.0,29.56,SE,131,1.0,3.0,63,0.00,,,0.01,weatherlink.com 1.10,2013-08-22 05:27:00,
2013-08-21 22:42:00,64.4,51.0,29.56,ESE,122,2.0,3.0,62,0.00,,,0.01,weatherlink.com 1.10,2013-08-22 05:42:00,
2013-08-21 22:57:00,64.3,51.0,29.56,ESE,110,0.0,4.0,63,0.00,,,0.01,weatherlink.com 1.10,2013-08-22 05:57:00,
2013-08-21 23:12:00,64.1,51.0,29.56,ESE,120,1.0,2.0,63,0.00,,,0.01,weatherlink.com 1.10,2013-08-22 06:12:00,
2013-08-21 23:27:00,63.6,51.0,29.56,ENE,65,3.0,3.0,64,0.00,,,0.01,weatherlink.com 1.10,2013-08-22 06:27:00,
2013-08-21 23:42:00,62.7,52.0,29.56,NE,56,1.0,3.0,67,0.00,,,0.01,weatherlink.com 1.10,2013-08-22 06:42:00,
2013-08-21 23:57:00,62.0,52.0,29.56,ENE,71,1.0,2.0,69,0.00,,,0.01,weatherlink.com 1.10,2013-08-22 06:57:00,